Location: Newark
(40.7060°N, 73.9980°W)
Time: 17:40:30
(UTC+00:00)

X-37B - Pass Details

Date: 15 March 2021
Orbit: 380 x 394 km, 45.0° (Epoch: 07 April)

Event Time Altitude Azimuth Distance (km) Brightness Sun altitude
Rises 01:43:41 0° 283° (WNW) 2,275 5.6 -30.5°
Reaches altitude 10° 01:45:51 10° 292° (WNW) 1,423 4.3 -30.9°
Enters shadow 01:45:58 11° 293° (WNW) 1,382 4.2 -30.9°
